Location: Croisilles
(50.1998°N, 2.8793°E)
Time: 03:16:24
(UTC+00:00)

Cosmos 1680 Rocket - Pass Details

Date: 21 January 2021
Orbit: 760 x 780 km, 74.1° (Epoch: 24 February)

Event Time Altitude Azimuth Distance (km) Brightness Sun altitude
Rises 17:39:12 0° 339° (NNW) 3,255 6.8 -11.8°
Reaches altitude 10° 17:41:45 10° 348° (NNW) 2,321 6.0 -12.2°
Maximum altitude 17:46:40 38° 56° (ENE) 1,152 4.0 -13.0°
Drops below altitude 10° 17:51:31 10° 125° (SE) 2,296 5.6 -13.7°
Enters shadow 17:53:36 - 132° (SE) 3,052 6.3 -14.0°
